Flag for U.S.A. Weather past 2 weeks in Acworth, Georgia, U.S.A.

Now
44 °F

Fog.


Feels Like: 44 °F
Forecast: 40 / 52 °F
Wind: No wind

Location: Cartersville Airport

Current Time: Dec 21, 2014 at 3:58:08 AM

Latest Report: Dec 21, 2014 at 2:53 AM


Visibility: 6 mi

Pressure: 30.20 "Hg

Humidity: 85%

Dew point: 40 °F

Location of AcworthLocation

Historic Weather in Acworth — Graph

°F

Acworth temperature yesterday

Maximum temperature yesterday: 47 °F (at 3:53 PM)
Minimum temperature yesterday: 39 °F (at 3:53 AM)
Average temperature yesterday: 43 °F

Past Weeks' High & Low Weather Summary

 TemperatureHumidityPressure
High64 °F (Dec 6, 2:53 PM)96% (Dec 9, 1:53 AM)30.37 "Hg (Dec 9, 1:53 AM)
Low27 °F (Dec 12, 5:53 AM)15% (Dec 12, 3:53 PM)29.90 "Hg (Dec 16, 5:53 AM)
Average42 °F72%30.18 "Hg
* Reported Dec 6 2:53 AM — Dec 21 2:53 AM, Acworth, Weather by CustomWeather, © 2014

Note: Actual official high and low records may vary slightly from our data, if they occured in-between our weather recording intervals... More about our weather records

Advertising

Acworth weather history for previous 24 hours

 ConditionsComfort  
Time TempWeatherWind HumidityBarometerVisibility
2:53 AM
Dec 21
44 °FFog.No wind85%30.20 "Hg6 mi
1:53 AM44 °FFog.No wind89%30.20 "Hg6 mi
12:53 AM45 °FFog.No wind86%30.21 "Hg6 mi
11:53 PM
Dec 20
45 °FFog.No wind86%30.21 "Hg4 mi
10:53 PM45 °FFog.No wind86%30.21 "Hg6 mi
10:00 PM45 °FLow clouds.No wind82%30.22 "Hg7 mi
8:53 PM45 °FOvercast.No wind80%30.20 "Hg8 mi
7:53 PM46 °FOvercast.5 mph77%30.21 "Hg9 mi
6:53 PM46 °FOvercast.5 mph77%30.20 "Hg9 mi
5:53 PM47 °FMostly cloudy.No wind80%30.19 "Hg10 mi
4:53 PM47 °FOvercast.No wind80%30.18 "Hg9 mi
3:53 PM47 °FOvercast.No wind80%30.17 "Hg9 mi
2:53 PM46 °FOvercast.No wind79%30.16 "Hg9 mi
1:53 PM45 °FCloudy.No wind82%30.18 "Hg8 mi
12:53 PM43 °FFog.No wind86%30.20 "Hg6 mi
11:53 AM42 °FFog.No wind85%30.23 "Hg6 mi
10:53 AM41 °FOvercast.No wind82%30.23 "Hg9 mi
9:53 AM40 °FOvercast.5 mph83%30.24 "Hg9 mi
8:53 AM39 °FFog.No wind93%30.22 "Hg6 mi
7:53 AM39 °FFog.No wind93%30.21 "Hg6 mi
7:01 AM39 °FFog.No wind93%30.20 "Hg5 mi
5:53 AM39 °FLight rain. Fog.No wind93%30.15 "Hg4 mi
4:53 AM39 °FFog.No wind93%30.16 "Hg5 mi
3:53 AM39 °FFog.No wind93%30.14 "Hg6 mi
Weather by CustomWeather, © 2014

See weather overviewHow to use our weather pages